Location: Unspecified
(0.0000°N, 0.0000°E)
Time: 12:31:21
(UTC+00:00)

deb OV3-4 - Pass Details

Date: 13 June 2025
Orbit: 581 x 4212 km, 40.6° (Epoch: 19 July)

Event Time Altitude Azimuth Distance (km) Brightness Sun altitude
Rises 21:43:03 0° 318° (NW) 8,419 ? -49.4°
Reaches altitude 10° 21:49:02 10° 321° (NW) 7,403 ? -50.6°
Enters shadow 22:11:38 68° 6° (N) 3,615 ? -54.8°
